Location: �perlecques
(50.8057°N, 2.1521°E)
Time: 23:20:51
(UTC+00:00)

CZ-4C R/B - Pass Details

Date: 09 April 2020
Orbit: 637 x 1365 km, 63.4° (Epoch: 27 May)

Event Time Altitude Azimuth Distance (km) Brightness Sun altitude
Rises 22:36:56 0° 314° (NW) 3,817 6.6 -28.9°
Reaches altitude 10° 22:39:29 10° 310° (NW) 2,960 5.7 -29.1°
Maximum altitude 22:46:22 50° 237° (WSW) 1,520 3.3 -29.4°
Enters shadow 22:47:00 49° 222° (SW) 1,550 3.2 -29.5°
